Weather History for KMUI - March, 2013

Change the Weather History Date:

Wednesday, March 27, 2013

  Actual Average Record
Temperature  
Mean Temperature 42 °F -  
Max Temperature 48 °F 52 °F 84 °F (1998)
Min Temperature 37 °F 35 °F 17 °F (2014)
Degree Days  
Heating Degree Days 23    
Moisture  
Dew Point 26 °F    
Average Humidity 53    
Maximum Humidity 65    
Minimum Humidity 37    
Precipitation  
Precipitation 0.00 in - - ()
Sea Level Pressure  
Sea Level Pressure 30.00 in    
Wind  
Wind Speed 11 mph (West)    
Max Wind Speed 22 mph    
Max Gust Speed 30 mph    
Visibility 10 miles    
Events      
Averages and records for this station are not official NWS values.
T = Trace of Precipitation, MM = Missing Value Source: NWS Daily Summary

Daily Weather History Graph

Daily Weather History Graph

Search for Another Location

Airport or City:

Trip Planner

Search our weather history database for the weather conditions in past years. The results will help you decide how hot, cold, wet, or windy it might be!

Date:

Astronomy

Mar. 27, 2013 Rise Set
Actual Time 6:57 AM EDT 7:25 PM EDT
Civil Twilight 6:30 AM EDT 7:53 PM EDT
Nautical Twilight 5:58 AM EDT 8:25 PM EDT
Astronomical Twilight 5:25 AM EDT 8:58 PM EDT
Moon 8:07 PM EDT (3/27) 6:47 AM EDT (3/27)
Length of Visible Light 13h 22m
Length of Day
12h 28m
Full, 100% of the Moon is Illuminated
Mar 27
Full
Apr 3
Last Quarter
Apr 10
New
Apr 18
First Quarter
Apr 25
Full

Hourly Weather History & Observations

Time (EDT) Temp. Windchill Dew Point Humidity Pressure Visibility Wind Dir Wind Speed Gust Speed Precip Events Conditions
12:55 AM 41.0 °F 35.8 °F 26.8 °F 57% 29.96 in 10.0 mi West 8.1 mph - N/A   Partly Cloudy
1:55 AM 40.5 °F 33.6 °F 27.7 °F 60% 29.96 in 10.0 mi West 11.5 mph - N/A   Clear
2:55 AM 39.9 °F 32.5 °F 27.7 °F 62% 29.95 in 10.0 mi West 12.7 mph - N/A   Overcast
3:55 AM 39.4 °F 35.2 °F 27.9 °F 63% 29.95 in 10.0 mi Variable 5.8 mph - N/A   Overcast
4:55 AM 38.7 °F 32.9 °F 27.9 °F 65% 29.95 in 10.0 mi West 8.1 mph - N/A   Overcast
5:55 AM 38.7 °F 32.4 °F 27.1 °F 63% 29.96 in 10.0 mi West 9.2 mph - N/A   Overcast
6:55 AM 38.1 °F 31.2 °F 25.7 °F 61% 29.98 in 10.0 mi West 10.4 mph - N/A   Mostly Cloudy
7:55 AM 37.8 °F 29.0 °F 25.0 °F 60% 29.99 in 10.0 mi WNW 15.0 mph 23.0 mph N/A   Partly Cloudy
8:55 AM 39.6 °F 31.0 °F 24.8 °F 56% 30.01 in 10.0 mi West 16.1 mph 23.0 mph N/A   Mostly Cloudy
9:55 AM 41.5 °F 33.5 °F 25.0 °F 52% 30.02 in 10.0 mi West 16.1 mph 21.9 mph N/A   Mostly Cloudy
10:55 AM 43.5 °F 36.4 °F 24.8 °F 48% 30.02 in 10.0 mi West 15.0 mph 24.2 mph N/A   Mostly Cloudy
11:55 AM 44.1 °F 38.1 °F 23.9 °F 45% 30.02 in 10.0 mi WNW 11.5 mph 25.3 mph N/A   Mostly Cloudy
12:55 PM 45.0 °F 39.7 °F 24.3 °F 44% 30.01 in 10.0 mi WNW 10.4 mph 17.3 mph N/A   Overcast
1:55 PM 44.4 °F 38.2 °F 24.4 °F 45% 30.00 in 10.0 mi West 12.7 mph 19.6 mph N/A   Mostly Cloudy
3:55 PM 47.8 °F - 25.2 °F 41% 29.98 in 10.0 mi West 15.0 mph 21.9 mph N/A   Mostly Cloudy
4:55 PM 47.7 °F - 22.1 °F 37% 29.98 in 10.0 mi WNW 8.1 mph 18.4 mph N/A   Partly Cloudy
5:55 PM 46.4 °F 38.5 °F 24.6 °F 42% 30.00 in 10.0 mi West 21.9 mph 29.9 mph N/A   Scattered Clouds
6:55 PM 43.2 °F 36.2 °F 26.8 °F 52% 30.03 in 10.0 mi West 13.8 mph - N/A   Clear
7:55 PM 42.3 °F 35.1 °F 27.0 °F 55% 30.04 in 10.0 mi West 13.8 mph 23.0 mph N/A   Clear
8:55 PM 41.7 °F 35.6 °F 25.5 °F 53% 30.05 in 10.0 mi West 10.4 mph - N/A   Clear
9:55 PM 41.2 °F 34.5 °F 25.0 °F 53% 30.06 in 10.0 mi WNW 11.5 mph 23.0 mph N/A   Clear
10:55 PM 40.3 °F 32.6 °F 25.0 °F 54% 30.06 in 10.0 mi West 13.8 mph 24.2 mph N/A   Clear
11:55 PM 39.6 °F 34.0 °F 25.2 °F 56% 30.07 in 10.0 mi West 8.1 mph - N/A   Clear